Regional Weather Roundup
Issued by NWS

Home | Current Version | Previous Version | Text Only | Print | Product List | Glossary Off
Versions: 1 2 3 4 5 6 7 8 9 10 11 12 13 14 15 16 17 18 19 20 21 22 23 24 25 26 27 28 29 30 31 32 33 34 35 36 37 38 39 40 41 42 43 44 45 46 47 48 49 50

000
ASUS43 KLSX 120707
RWRMO

WEATHER SUMMARY FOR MISSOURI
NATIONAL WEATHER SERVICE SPRINGFIELD MO
200 AM CDT SAT JUL 12 2014

NOTE: "FAIR" INDICATES FEW OR NO CLOUDS BELOW 12,000 FEET WITH NO
       SIGNIFICANT WEATHER AND/OR OBSTRUCTIONS TO VISIBILITY.
       CURRENT SKY AND/OR WEATHER CONDITIONS ARE NOT AVAILABLE FOR
       CHILLICOTHE AND FARMINGTON.

MOZ001>031-035>038-043-044-053-054-120800-
...NORTHERN AND WESTERN MISSOURI...

CITY           SKY/WX    TMP DP  RH WIND       PRES   REMARKS
KANSAS CTY INT PTCLDY    78  70  76 S16       30.05F
KANSAS C DTWN  CLEAR     82  70  66 SW12      30.04F
LEE`S SUMMIT   CLEAR     78  70  76 SW8       30.07F
ST JOSEPH      PTCLDY    77  71  82 S7        30.02F
CHILLICOTHE      N/A     80  73  79 S6        30.04F
KIRKSVILLE     CLEAR     77  73  87 SW6       30.04F

$$
MOZ066>068-077>081-088>096-101>105-120800-
...SOUTHWEST MISSOURI...

CITY           SKY/WX    TMP DP  RH WIND       PRES   REMARKS
SPRINGFIELD    CLEAR     74  69  85 S8        30.14S
JOPLIN         CLEAR     76  69  79 S9        30.12S

$$
MOZ032>034-039>042-045>050-055>058-069>072-120800-
...CENTRAL MISSOURI...

CITY           SKY/WX    TMP DP  RH WIND       PRES   REMARKS
COLUMBIA       MOCLDY    78  74  87 S7        30.08F
ROLLA          CLOUDY    76  72  87 S9        30.10F
SEDALIA        PTCLDY    80  72  76 SW9       30.08F
WHITEMAN AFB   PTCLDY    77  66  69 SW9       30.07S
OSAGE BEACH    MOCLDY    79  72  78 S7        30.10F

$$
MOZ051-052-059>065-120800-
...EAST CENTRAL MISSOURI...

CITY           SKY/WX    TMP DP  RH WIND       PRES   REMARKS
ST LOUIS INTL  CLOUDY    82  71  69 S8        30.11S
SPIRIT OF STL  MOCLDY    79  71  76 CALM      30.09S
ST CHARLES     CLOUDY    79  71  76 S5        30.08F

$$
MOZ072>076-082>087-097>100-106>115-120800-
...SOUTH CENTRAL AND SOUTHEAST MISSOURI...

CITY           SKY/WX    TMP DP  RH WIND       PRES   REMARKS
CAPE GIRARDEAU CLEAR     75  68  78 CALM      30.13S
FARMINGTON     MOCLDY    73  70  88 S3        30.16S
POPLAR BLUFF   CLEAR     75  71  87 SW3       30.12F
WEST PLAINS    CLEAR     75  72  90 S5        30.17S

$$


USA.gov is the U.S. government's official web portal to all federal, state and local government web resources and services.